Wetbulb
56.77 56.42 56.43 50.64 42.17 38.57 32.92 37.14 41.43 41.81 43.14 43.48 44.78 44.45 44.35 44.65 45.49 43.40 62.89 68.48 69.24 70.60 72.45 73.15 74.80 75.45 75.39 75.23 75.16 75.15 74.99 74.77 74.11 73.58 73.05 72.91 72.73 73.16 73.20 72.25 72.20 72.59 73.07 71.74 70.87 70.83 69.94 71.00 70.37
52.49 55.56 51.75 45.33 35.54 28.64 28.80 37.24 41.34 44.21 45.75 45.73 44.84 44.14 44.69 46.62 55.63 62.06 63.75 68.09 69.85 71.32 72.08 72.02 74.51 75.18 75.42 75.47 75.03 74.56 74.96 74.84 74.29 72.91 73.52 72.78 72.40 73.42 73.65 72.99 73.01 72.93 72.80 72.13 70.82 70.75 70.49 70.47 69.62
53.46 53.94 46.26 40.53 34.38 29.89 29.73 37.84 41.23 43.63 44.46 44.68 43.90 44.64 46.42 52.79 62.18 62.30 65.19 68.78 70.26 70.52 71.34 71.79 74.19 74.59 74.90 75.17 74.72 74.53 74.57 74.50 74.21 74.17 74.28 73.79 73.00 73.82 73.56 73.38 73.24 72.76 71.99 71.03 71.21 70.92 70.64 68.78 69.07
50.06 48.55 44.90 36.98 34.12 36.47 35.10 39.13 41.80 41.46 43.58 44.12 43.55 41.39 46.62 57.41 59.03 64.42 67.62 68.97 69.46 69.25 70.39 72.65 73.93 74.18 74.16 74.54 74.98 74.79 74.33 73.96 73.91 73.87 73.25 73.83 74.02 73.93 73.25 72.93 72.47 71.65 71.07 70.71 70.75 70.69 69.52 68.67 69.17
47.54 42.14 34.76 31.84 33.90 37.60 38.58 41.82 40.94 39.73 40.53 40.95 41.46 41.47 42.48 51.85 57.79 64.24 66.37 69.22 68.82 70.17 69.73 72.15 73.96 74.16 73.91 73.71 74.18 74.81 74.81 74.63 74.20 73.86 73.50 73.39 73.49 73.34 72.90 72.47 71.87 71.49 70.92 70.18 70.45 69.99 68.15 68.98 68.98
41.95 39.96 28.66 27.34 31.31 37.13 38.93 42.00 39.32 38.66 38.19 40.52 39.13 40.17 42.21 48.93 54.98 62.23 65.58 67.65 69.30 70.18 71.25 71.75 72.68 73.59 73.82 73.62 73.22 73.79 74.62 74.75 74.41 74.20 73.84 73.56 73.49 72.79 72.69 71.75 71.42 70.47 69.99 69.82 69.59 68.53 68.06 68.77 68.74
39.03 34.34 29.77 29.88 31.40 34.41 37.66 40.15 37.78 37.43 36.02 38.30 39.33 37.07 42.16 45.52 48.44 62.49 65.13 66.12 67.45 69.26 69.73 69.65 70.93 71.81 72.06 73.01 73.25 72.64 73.77 74.15 73.95 73.65 73.56 72.59 71.82 72.08 72.45 71.59 70.93 69.98 69.39 68.76 68.53 67.85 68.60 68.60 68.28
40.63 35.88 30.82 31.25 31.62 32.32 36.97 38.66 38.88 37.19 36.05 41.40 40.00 36.25 38.39 44.00 48.42 57.83 63.13 64.52 64.73 66.24 66.87 67.20 68.46 69.52 69.27 69.60 71.58 71.82 71.91 72.66 72.88 72.31 71.70 70.38 69.76 70.23 71.52 70.51 70.44 70.61 69.70 69.47 69.23 68.81 68.49 68.66 68.17
40.25 31.57 28.11 30.54 33.16 33.68 36.77 36.42 39.77 41.06 37.74 38.32 40.26 39.10 44.75 45.67 48.88 52.06 57.95 61.22 63.38 64.24 64.83 64.78 65.64 66.90 67.44 67.03 68.20 69.73 70.87 70.69 70.48 70.21 68.63 67.99 69.15 69.51 68.80 68.69 69.14 69.69 69.54 69.70 69.29 69.15 69.05 68.29 67.01
34.45 28.07 29.76 34.68 34.84 32.95 36.72 36.80 37.54 37.41 36.67 35.92 39.18 42.86 43.59 44.71 45.17 46.11 49.32 55.03 59.10 61.89 63.18 63.17 63.29 63.36 64.11 63.95 64.58 66.74 68.25 68.08 68.32 68.51 68.14 68.19 68.27 68.69 69.28 67.29 67.90 69.43 69.39 69.51 69.67 69.42 69.08 66.15 61.34
34.88 29.99 34.30 36.48 38.10 38.57 36.68 35.95 38.05 35.39 34.02 36.56 37.07 38.86 41.46 43.03 43.89 44.53 45.86 50.80 56.49 59.59 62.65 62.44 62.13 61.40 61.66 61.26 61.04 63.73 65.92 67.24 67.20 66.99 66.95 67.26 67.90 67.58 68.00 67.70 67.97 68.03 66.58 67.37 67.89 67.35 64.26 60.95 59.15
29.96 36.21 36.91 37.74 39.08 38.38 35.95 37.72 36.16 36.30 36.10 39.96 41.05 41.91 41.15 41.22 42.21 43.58 44.44 46.63 49.43 56.78 60.09 62.36 62.15 60.90 60.41 61.86 60.09 60.89 63.82 66.89 67.58 67.18 67.09 65.43 64.88 65.72 64.98 66.00 65.73 66.43 66.89 65.71 64.52 64.68 61.56 59.49 57.59
32.31 34.56 38.05 38.95 38.67 38.14 39.06 36.40 36.04 36.56 40.79 41.87 42.34 42.59 41.12 41.18 42.10 43.48 45.01 46.68 48.34 55.41 59.41 61.12 61.61 60.16 61.09 60.42 60.90 59.83 59.61 62.86 65.94 67.55 67.48 65.93 65.20 65.49 64.50 64.09 64.24 64.29 65.11 64.82 64.18 62.21 60.80 58.20 57.00
34.53 36.18 36.53 37.85 37.77 38.48 36.46 35.94 36.08 37.34 39.07 40.02 41.06 40.69 40.44 40.60 41.53 42.85 44.37 45.15 47.09 54.43 57.53 60.01 60.84 60.40 60.87 60.04 59.47 59.17 59.05 60.71 63.48 65.42 66.66 66.82 65.96 65.43 64.58 64.78 65.00 63.84 64.28 63.80 63.65 61.58 59.42 58.22 56.90
36.75 32.28 34.31 35.06 36.77 36.19 38.50 33.12 33.73 38.78 38.32 38.47 39.78 40.99 41.98 41.99 42.23 42.21 44.64 45.01 46.56 50.44 56.57 58.18 60.44 60.87 60.28 60.43 60.31 59.44 59.36 61.73 62.91 64.24 66.08 66.05 65.45 64.94 64.88 64.84 64.98 64.91 64.91 63.77 62.36 61.48 59.21 57.73 57.03
31.23 29.55 25.05 32.70 36.67 37.80 36.01 28.42 35.47 37.73 36.89 36.84 38.74 40.75 41.23 41.63 41.96 43.27 44.18 45.35 47.46 49.75 54.53 57.45 59.82 60.60 60.32 60.32 59.70 59.35 59.06 59.10 62.48 65.51 64.49 65.63 66.05 65.84 65.16 64.40 64.77 65.14 64.57 63.53 62.52 61.09 58.85 57.51 56.36
27.33 19.69 24.47 29.16 36.13 36.05 33.98 29.92 35.94 38.41 37.89 37.78 39.03 39.61 40.55 41.73 41.62 42.48 43.95 44.92 46.40 47.39 50.50 55.64 57.98 58.71 59.13 58.98 58.63 58.51 58.79 58.54 59.08 63.90 65.18 65.40 65.60 65.91 65.21 64.72 64.50 64.08 63.81 62.91 62.30 60.29 59.66 57.25 56.41
21.30 22.65 27.41 27.13 32.05 34.06 32.28 31.84 36.16 38.72 38.12 37.04 38.47 39.28 39.87 39.94 41.25 42.78 43.74 45.07 45.51 46.06 50.61 54.67 57.55 58.31 58.68 58.96 58.96 59.26 60.01 59.55 59.34 60.81 64.36 65.04 65.23 65.70 65.47 65.01 64.18 63.45 62.80 61.51 61.00 60.18 58.53 57.81 57.25
30.78 29.62 28.68 31.99 34.77 33.58 31.44 31.94 34.88 38.36 38.04 36.91 38.20 39.00 39.15 40.00 42.55 42.85 44.02 45.11 45.83 47.59 50.51 55.17 56.47 57.76 59.79 59.94 59.55 59.52 59.95 60.70 61.16 61.07 63.42 64.35 64.50 64.51 64.35 64.09 63.50 63.00 62.09 61.01 60.53 59.37 58.53 57.08 56.73
30.92 29.31 27.21 31.69 34.67 32.78 32.37 32.29 36.37 38.19 38.30 38.29 38.15 38.33 38.35 39.12 40.31 42.74 44.32 45.35 46.42 47.60 50.80 54.54 57.05 58.14 59.55 60.01 60.27 61.06 61.28 61.51 61.60 61.45 63.03 64.30 64.14 63.99 63.79 63.06 61.68 62.04 61.66 60.85 59.97 59.26 57.90 57.87 57.02
29.01 27.56 28.17 29.93 33.90 34.73 33.35 28.69 31.07 35.58 38.28 38.67 38.72 38.01 38.20 38.25 39.38 42.20 43.96 44.36 45.99 48.19 50.88 55.01 57.38 58.96 59.93 60.39 60.80 61.29 61.33 60.71 60.47 61.14 61.84 63.16 63.93 63.42 62.67 61.70 61.50 61.22 61.56 60.77 60.71 59.58 58.74 56.80 56.65
27.34 33.44 33.63 33.75 32.38 27.54 34.26 23.27 28.21 32.88 35.06 36.73 37.36 37.22 38.19 39.65 41.45 42.41 44.42 45.09 46.50 49.35 52.13 55.43 57.69 59.22 59.26 59.47 60.02 59.70 57.85 57.55 58.75 61.26 61.58 61.63 63.28 63.03 61.02 60.53 59.85 60.41 61.18 60.72 60.60 60.23 59.42 58.55 56.59
31.70 35.93 34.47 33.94 33.00 31.59 30.43 27.86 27.80 34.10 33.00 36.58 38.88 38.79 39.13 40.52 42.43 42.91 44.79 47.11 50.05 52.00 53.24 55.77 57.55 58.56 58.09 59.35 60.22 59.07 56.75 57.21 57.93 59.21 60.40 60.25 61.36 62.20 61.96 61.00 60.34 60.54 61.66 61.25 60.83 59.59 58.81 59.08 58.03
37.04 34.99 34.61 33.35 33.95 25.03 27.64 29.55 25.52 33.16 34.59 36.81 40.01 40.80 43.16 44.47 44.22 45.14 48.74 50.66 51.51 51.75 54.73 55.61 56.94 58.08 57.53 58.11 58.64 57.96 57.04 57.06 58.00 58.26 59.43 59.65 60.32 61.18 62.05 62.31 62.54 62.47 62.03 61.53 60.69 59.48 59.16 59.01 58.73
35.62 34.10 20.77 17.42 22.92 20.66 33.84 31.51 31.46 36.26 37.40 42.02 43.07 45.37 47.27 48.23 47.82 48.72 49.63 50.27 50.74 51.07 54.22 55.71 56.50 57.32 58.27 57.82 57.65 58.67 57.97 56.78 57.42 58.45 59.44 58.94 59.10 59.28 59.96 60.48 60.36 60.16 60.21 59.77 59.33 58.94 58.77 58.68 58.51
35.19 34.00 26.57 16.48 17.86 23.58 33.30 25.48 31.06 38.16 39.95 44.97 45.90 45.97 46.22 46.41 45.86 48.24 49.05 51.22 52.02 53.18 53.20 55.29 56.25 57.25 58.25 59.17 59.24 59.81 59.98 58.84 59.37 59.54 59.75 59.46 59.19 59.45 59.83 59.91 60.06 59.91 59.73 59.52 59.37 58.94 58.39 58.28 58.34
35.18 33.05 37.07 30.76 30.01 27.09 29.47 32.32 36.60 36.96 37.26 42.07 42.53 43.60 43.50 43.63 44.22 44.28 45.37 48.57 50.52 51.24 53.28 55.56 55.06 55.28 56.96 58.22 58.92 58.93 59.36 59.11 59.19 59.63 59.81 59.17 59.10 59.48 59.70 59.80 59.43 59.55 59.51 59.43 59.07 58.59 58.26 58.17 58.34
36.79 39.03 31.60 31.67 23.47 22.71 27.97 28.15 26.82 30.97 33.34 37.37 40.19 40.52 41.41 42.41 42.70 43.57 44.28 45.42 47.31 48.35 50.18 51.18 51.56 51.93 52.70 52.87 53.26 54.11 56.20 58.60 59.23 59.17 58.77 58.87 59.06 59.21 59.34 59.06 59.23 58.92 59.09 59.17 58.42 58.49 58.89 58.64 58.79
36.15 34.70 35.54 35.07 30.39 24.82 23.19 26.53 33.40 32.16 35.10 36.08 39.29 39.81 40.35 41.05 41.75 42.47 43.50 44.77 45.54 46.17 46.70 48.16 49.22 48.92 48.86 49.08 49.06 49.18 49.51 50.57 51.54 52.26 53.18 54.93 55.66 56.12 56.43 57.17 58.36 58.36 57.88 57.91 57.89 57.81 57.93 58.35 58.53
37.19 35.20 34.83 27.02 27.28 27.23 26.87 28.23 38.74 37.84 38.92 39.37 38.90 39.74 40.63 40.98 41.06 41.43 42.10 43.08 43.62 44.15 44.75 44.97 45.61 45.68 46.09 46.63 46.38 46.21 46.70 47.06 47.10 47.24 47.82 48.87 49.55 50.30 49.93 50.27 50.99 51.75 52.84 54.02 54.48 54.45 55.00 55.26 55.68
MSLP
1013.89 1013.72 1013.83 1014.37 1016.44 1017.60 1017.64 1016.98 1016.12 1015.41 1014.71 1014.08 1013.68 1013.17 1012.90 1012.61 1012.26 1012.02 1010.66 1010.74 1010.85 1011.02 1011.26 1011.50 1011.77 1012.07 1012.35 1012.63 1012.97 1013.30 1013.52 1013.83 1014.02 1014.27 1014.50 1014.92 1015.00 1015.18 1015.41 1015.60 1015.82 1015.89 1016.12 1016.33 1016.69 1016.86 1017.08 1017.40 1017.60
1014.02 1014.02 1014.38 1015.79 1017.48 1018.53 1017.69 1016.74 1016.10 1015.34 1014.68 1013.96 1013.37 1013.02 1012.87 1012.42 1011.88 1011.39 1011.12 1011.05 1010.99 1010.95 1011.32 1011.72 1011.92 1012.11 1012.39 1012.72 1013.08 1013.43 1013.61 1013.87 1014.20 1014.42 1014.62 1014.95 1015.14 1015.20 1015.41 1015.71 1015.93 1016.10 1016.26 1016.48 1016.81 1017.13 1017.49 1017.78 1017.94
1014.06 1014.24 1015.66 1016.89 1018.14 1017.96 1017.32 1016.38 1015.83 1015.31 1014.72 1014.15 1013.56 1013.08 1012.94 1012.76 1012.18 1011.84 1011.40 1011.30 1011.22 1011.22 1011.36 1011.65 1012.05 1012.44 1012.64 1012.85 1013.19 1013.49 1013.76 1013.98 1014.24 1014.44 1014.65 1014.91 1015.13 1015.20 1015.47 1015.76 1016.01 1016.41 1016.57 1016.77 1017.15 1017.40 1017.71 1017.94 1018.08
1014.58 1015.29 1017.20 1017.64 1018.20 1017.41 1016.85 1016.19 1015.72 1015.33 1014.74 1014.45 1014.19 1013.73 1013.21 1013.35 1013.35 1012.82 1011.85 1011.58 1011.59 1011.78 1011.56 1011.79 1012.00 1012.32 1012.73 1012.89 1013.09 1013.44 1013.80 1014.05 1014.33 1014.55 1014.72 1014.99 1015.13 1015.23 1015.55 1015.95 1016.17 1016.55 1016.92 1017.17 1017.39 1017.69 1017.88 1018.03 1018.15
1015.49 1016.81 1018.23 1018.81 1018.52 1017.55 1016.92 1016.26 1015.95 1015.67 1015.32 1014.93 1014.65 1014.16 1013.82 1013.55 1013.43 1012.79 1012.53 1011.67 1011.76 1012.02 1012.26 1012.26 1012.30 1012.53 1012.73 1013.00 1013.17 1013.20 1013.43 1013.88 1014.18 1014.54 1014.79 1015.10 1015.18 1015.37 1015.72 1016.08 1016.30 1016.82 1017.18 1017.45 1017.54 1017.79 1018.13 1018.15 1018.28
1016.74 1017.80 1019.17 1019.44 1018.86 1017.70 1016.79 1016.11 1015.82 1015.77 1015.60 1015.21 1014.91 1014.69 1014.29 1014.00 1013.30 1012.95 1012.58 1012.27 1011.77 1011.96 1012.12 1012.56 1012.64 1012.80 1012.98 1013.13 1013.30 1013.46 1013.55 1013.70 1014.04 1014.36 1014.72 1015.01 1015.23 1015.48 1015.87 1016.14 1016.42 1016.86 1017.25 1017.54 1017.76 1017.88 1018.10 1018.36 1018.40
1017.30 1018.44 1019.14 1019.20 1018.79 1018.02 1016.95 1016.22 1016.06 1015.74 1015.86 1015.48 1015.21 1015.06 1014.46 1014.22 1014.13 1013.56 1012.98 1012.68 1012.35 1011.90 1012.01 1012.45 1012.82 1013.00 1013.22 1013.32 1013.39 1013.56 1013.72 1013.78 1014.02 1014.33 1014.59 1015.04 1015.35 1015.65 1015.96 1016.25 1016.54 1016.85 1017.20 1017.52 1017.75 1017.86 1018.00 1018.27 1018.49
1017.74 1018.66 1019.55 1019.37 1018.86 1017.81 1017.12 1016.76 1016.49 1016.25 1016.06 1015.61 1015.36 1015.22 1014.87 1014.62 1014.44 1013.76 1013.37 1013.05 1013.03 1012.88 1012.50 1012.52 1012.74 1013.12 1013.30 1013.53 1013.49 1013.69 1013.82 1013.90 1014.05 1014.37 1014.66 1014.96 1015.32 1015.72 1016.03 1016.29 1016.51 1016.78 1017.11 1017.39 1017.71 1017.91 1017.98 1018.11 1018.41
1018.10 1019.17 1019.81 1019.20 1018.82 1017.88 1017.58 1017.36 1016.96 1016.75 1016.47 1016.11 1015.64 1015.45 1015.18 1014.99 1014.67 1014.18 1013.84 1013.55 1013.30 1013.26 1013.29 1013.07 1012.83 1013.01 1013.24 1013.48 1013.56 1013.68 1013.82 1013.91 1014.13 1014.43 1014.71 1015.16 1015.43 1015.72 1016.18 1016.42 1016.66 1016.78 1017.04 1017.35 1017.54 1017.85 1018.11 1018.30 1018.44
1018.67 1019.46 1019.26 1018.89 1018.50 1018.21 1018.03 1017.85 1017.52 1017.28 1016.93 1016.63 1016.15 1015.53 1015.25 1015.02 1014.90 1015.11 1014.91 1014.46 1014.11 1013.77 1013.65 1013.71 1013.59 1013.57 1013.30 1013.37 1013.58 1013.70 1013.73 1013.84 1014.16 1014.52 1014.78 1015.06 1015.35 1015.71 1016.01 1016.44 1016.85 1017.01 1017.04 1017.27 1017.48 1017.66 1018.01 1018.39 1018.80
1019.17 1019.35 1019.22 1018.90 1018.61 1018.43 1018.31 1018.18 1017.78 1017.47 1016.97 1016.78 1016.43 1016.00 1015.66 1015.43 1015.31 1015.34 1015.28 1015.02 1014.49 1014.12 1013.82 1013.82 1013.79 1013.76 1013.77 1013.60 1013.74 1013.82 1013.76 1013.78 1014.01 1014.39 1014.90 1015.14 1015.37 1015.67 1015.92 1016.33 1016.84 1017.22 1017.31 1017.42 1017.51 1017.83 1018.09 1018.40 1018.71
1019.63 1019.52 1019.43 1019.18 1019.00 1018.89 1018.69 1018.39 1017.94 1017.50 1016.85 1016.42 1016.01 1015.96 1015.96 1015.96 1015.77 1015.31 1015.06 1014.90 1014.47 1014.06 1013.84 1013.77 1013.79 1014.04 1013.92 1013.84 1013.87 1013.75 1013.77 1013.63 1013.93 1014.13 1014.74 1015.26 1015.63 1015.81 1015.94 1016.40 1016.68 1017.06 1017.35 1017.56 1017.57 1017.77 1018.18 1018.47 1018.66
1019.84 1019.82 1019.67 1019.39 1019.21 1018.99 1018.66 1018.30 1018.04 1017.08 1015.96 1015.90 1015.78 1015.77 1015.70 1015.62 1015.29 1014.96 1014.50 1014.34 1014.19 1013.85 1013.52 1013.50 1013.62 1013.93 1013.94 1013.94 1013.86 1013.99 1013.96 1013.86 1013.84 1013.81 1014.02 1014.74 1015.31 1015.76 1015.74 1016.28 1016.82 1017.02 1017.20 1017.44 1017.70 1017.84 1018.12 1018.50 1018.72
1020.53 1020.37 1019.89 1019.31 1018.82 1018.60 1018.34 1017.84 1017.71 1016.18 1015.41 1015.36 1015.34 1015.18 1015.02 1014.99 1014.83 1014.55 1014.29 1013.91 1013.79 1013.48 1013.24 1013.23 1013.26 1013.41 1013.82 1013.94 1013.90 1013.94 1013.87 1013.90 1013.85 1013.93 1014.15 1014.28 1014.30 1014.95 1015.56 1015.90 1016.38 1016.88 1017.06 1017.19 1017.63 1017.96 1018.23 1018.46 1018.48
1020.44 1020.36 1019.44 1018.90 1018.68 1018.31 1018.08 1017.57 1016.72 1015.10 1015.34 1015.08 1014.76 1014.65 1014.18 1014.07 1014.06 1013.99 1013.59 1013.30 1013.03 1012.83 1012.78 1012.87 1012.81 1013.03 1013.31 1013.70 1013.69 1013.70 1013.82 1013.85 1013.94 1014.10 1014.20 1014.48 1014.55 1014.57 1014.48 1015.43 1016.00 1016.34 1016.72 1017.05 1017.57 1017.95 1018.23 1018.55 1018.75
1020.83 1020.89 1020.30 1019.03 1018.71 1018.13 1018.13 1016.54 1015.60 1015.06 1015.16 1014.91 1014.42 1014.00 1013.57 1013.20 1013.16 1013.15 1013.03 1012.78 1012.36 1012.53 1012.52 1012.30 1012.45 1012.69 1012.92 1012.97 1013.26 1013.48 1013.65 1013.81 1013.65 1013.67 1014.06 1014.18 1014.31 1014.31 1014.68 1014.50 1015.20 1015.76 1016.30 1016.61 1017.13 1017.75 1018.26 1018.32 1018.78
1021.49 1021.59 1020.80 1019.47 1018.55 1018.28 1018.09 1016.30 1015.75 1015.23 1015.11 1014.50 1013.94 1013.45 1012.98 1012.65 1012.57 1012.52 1012.35 1012.16 1011.95 1011.76 1011.92 1012.02 1012.08 1012.22 1012.36 1012.82 1012.94 1013.15 1013.34 1013.63 1013.54 1013.44 1013.55 1013.83 1014.00 1014.13 1014.46 1014.43 1014.44 1015.05 1015.93 1016.15 1016.82 1017.45 1017.68 1018.24 1018.41
1021.76 1021.47 1020.78 1020.06 1018.90 1018.35 1018.00 1016.04 1015.46 1014.65 1014.52 1013.86 1013.30 1012.83 1012.46 1012.39 1011.87 1011.66 1011.63 1011.45 1011.46 1011.34 1011.19 1011.20 1011.51 1011.69 1011.94 1012.35 1012.76 1012.93 1013.14 1013.19 1013.19 1013.30 1013.09 1013.25 1013.65 1013.83 1014.22 1014.57 1015.03 1015.18 1015.86 1015.93 1016.58 1017.05 1017.41 1017.72 1017.77
1021.37 1021.04 1020.18 1019.02 1018.51 1018.18 1017.37 1016.00 1014.71 1013.72 1013.54 1013.25 1012.73 1012.27 1011.92 1011.62 1011.06 1011.10 1011.14 1010.90 1010.92 1010.90 1010.95 1010.69 1010.93 1011.10 1011.52 1011.95 1012.27 1012.48 1012.48 1012.72 1012.89 1012.90 1012.70 1012.90 1013.21 1013.59 1013.81 1014.23 1014.79 1015.15 1015.61 1016.10 1016.35 1016.97 1017.51 1017.70 1017.50
1020.97 1020.30 1019.20 1018.15 1017.48 1017.57 1016.73 1015.02 1013.52 1012.74 1012.45 1012.71 1012.42 1011.99 1011.77 1011.52 1011.01 1010.61 1010.61 1010.57 1010.22 1010.01 1010.22 1010.15 1010.29 1010.37 1010.77 1011.19 1011.41 1011.82 1011.94 1012.06 1012.15 1012.27 1012.35 1012.39 1012.59 1013.02 1013.35 1013.81 1014.46 1014.96 1015.27 1016.32 1016.91 1016.68 1017.44 1017.28 1017.30
1020.04 1019.61 1018.55 1018.07 1017.20 1016.54 1016.13 1014.29 1013.29 1012.57 1012.54 1012.44 1012.22 1011.94 1011.60 1011.32 1010.90 1010.41 1010.18 1009.85 1009.70 1009.48 1009.31 1009.59 1009.74 1009.76 1010.10 1010.43 1010.84 1011.43 1011.56 1011.71 1011.73 1011.85 1011.94 1011.98 1012.30 1012.51 1012.84 1013.14 1013.70 1014.65 1015.17 1015.62 1016.24 1016.67 1017.02 1016.72 1017.15
1019.24 1018.08 1018.06 1017.55 1017.11 1016.46 1015.95 1014.91 1013.52 1013.05 1012.73 1012.45 1012.02 1011.75 1011.29 1010.86 1010.36 1009.86 1009.39 1009.10 1008.89 1008.57 1008.40 1008.77 1009.05 1009.27 1009.60 1009.94 1010.49 1010.77 1010.98 1011.30 1011.30 1011.31 1011.57 1011.84 1011.96 1012.22 1012.64 1012.76 1013.23 1013.94 1014.38 1015.24 1015.69 1015.84 1015.93 1016.15 1016.88
1018.16 1017.62 1017.47 1017.31 1016.80 1016.29 1015.45 1015.80 1013.18 1013.19 1013.01 1012.44 1011.35 1011.10 1010.71 1010.11 1009.53 1009.01 1008.52 1008.29 1007.87 1007.78 1007.98 1008.16 1008.42 1008.86 1009.32 1009.65 1010.06 1010.57 1010.86 1010.93 1011.13 1011.30 1011.41 1011.60 1011.75 1011.97 1012.41 1012.65 1013.33 1013.68 1014.07 1014.36 1015.23 1014.93 1015.04 1015.36 1016.09
1017.45 1017.37 1016.79 1016.38 1016.21 1015.83 1014.90 1015.34 1013.76 1013.74 1013.39 1012.20 1011.00 1010.34 1009.91 1009.46 1008.85 1008.29 1007.94 1007.89 1007.62 1007.33 1007.46 1007.94 1008.12 1008.43 1008.88 1009.20 1009.81 1010.17 1010.38 1010.50 1010.78 1011.26 1011.35 1011.44 1011.47 1011.84 1012.11 1012.41 1012.93 1013.26 1013.78 1014.02 1014.69 1014.05 1014.40 1015.10 1015.47
1017.46 1017.47 1016.89 1016.43 1016.10 1015.19 1014.64 1014.76 1014.31 1013.85 1012.96 1011.43 1010.76 1010.29 1009.90 1009.47 1008.83 1008.25 1007.87 1007.62 1007.48 1007.31 1007.30 1007.64 1007.96 1008.27 1008.67 1009.32 1009.73 1009.71 1009.77 1010.13 1010.05 1010.60 1011.03 1011.31 1011.49 1011.89 1012.06 1011.86 1012.16 1013.12 1013.44 1013.86 1013.93 1014.29 1014.64 1015.05 1015.42
1016.95 1017.21 1017.15 1017.00 1016.14 1014.88 1014.51 1014.55 1014.37 1014.11 1012.95 1011.60 1010.96 1010.59 1010.05 1009.34 1009.26 1008.60 1008.16 1007.75 1007.51 1007.12 1007.12 1007.30 1007.75 1008.12 1008.53 1009.38 1009.54 1008.99 1008.93 1009.42 1009.78 1010.24 1010.72 1010.65 1011.07 1011.75 1012.15 1012.33 1012.59 1012.86 1013.28 1013.61 1013.87 1014.14 1014.22 1014.57 1014.81
1016.38 1016.54 1016.62 1016.41 1015.81 1015.35 1014.65 1014.57 1014.45 1014.30 1013.43 1012.32 1011.75 1011.17 1010.84 1010.86 1010.52 1009.50 1008.86 1008.42 1008.25 1007.92 1007.65 1007.72 1008.33 1008.96 1009.22 1009.29 1009.17 1008.80 1008.74 1009.03 1009.76 1009.88 1010.50 1010.91 1010.85 1011.69 1012.00 1012.30 1012.58 1012.72 1012.95 1013.02 1013.26 1013.58 1013.70 1014.14 1014.67
1016.33 1016.49 1016.42 1016.24 1015.83 1015.20 1014.86 1015.09 1015.54 1015.26 1014.78 1013.82 1013.17 1012.80 1012.56 1012.19 1011.07 1010.33 1009.67 1009.39 1009.36 1009.19 1009.07 1009.11 1009.50 1009.70 1009.65 1009.79 1009.47 1009.77 1009.71 1009.91 1010.29 1010.49 1010.74 1011.07 1011.36 1011.75 1011.95 1012.11 1012.39 1012.53 1012.93 1013.05 1013.11 1013.49 1013.90 1014.23 1014.34
1016.07 1016.02 1016.01 1015.99 1015.86 1015.66 1015.57 1015.89 1016.30 1016.15 1015.79 1015.03 1014.20 1014.02 1013.59 1013.10 1012.54 1011.46 1010.96 1010.70 1010.26 1010.34 1010.31 1010.45 1010.52 1010.57 1010.43 1010.21 1010.58 1011.02 1011.10 1011.28 1011.22 1011.53 1011.72 1011.92 1011.98 1012.11 1012.28 1012.16 1012.17 1012.43 1012.78 1012.94 1013.08 1013.40 1013.73 1013.78 1013.68
1015.30 1015.57 1015.85 1015.87 1016.05 1015.90 1015.98 1016.39 1016.12 1016.26 1015.98 1015.57 1015.17 1014.78 1014.33 1013.80 1013.57 1013.38 1012.96 1012.57 1012.28 1012.15 1011.71 1011.64 1011.56 1010.89 1011.06 1011.51 1012.04 1012.25 1012.23 1012.44 1012.46 1012.71 1012.96 1012.86 1012.84 1012.97 1013.02 1013.10 1013.11 1013.25 1013.29 1013.28 1013.36 1013.66 1013.75 1013.87 1013.70
Wind_Speed
5 4 2 5 6 5 3 6 1 2 3 0 5 3 3 3 4 6 4 7 4 11 7 11 13 12 16 15 16 14 14 14 14 14 15 15 17 18 17 17 16 14 16 18 17 15 15 15 15
2 1 5 3 6 2 6 3 6 3 2 7 2 1 1 5 3 8 3 3 6 11 8 8 13 12 13 14 14 14 14 14 13 14 14 15 16 17 17 16 16 15 16 16 16 16 14 13 11
1 4 5 5 4 6 5 5 4 3 5 4 4 1 1 4 6 3 5 5 6 7 7 8 14 11 10 13 14 14 12 12 12 13 14 14 15 15 14 18 16 14 12 15 14 15 14 12 10
3 5 5 5 6 6 4 3 2 3 4 6 4 3 4 9 8 9 7 5 6 3 6 10 15 15 13 12 13 14 14 13 11 11 12 14 14 14 16 15 15 14 12 15 15 13 13 11 10
5 3 4 1 4 5 3 3 1 2 3 3 6 5 5 5 10 11 11 5 6 5 2 6 14 13 13 13 13 13 15 14 13 12 12 15 14 15 16 16 16 13 13 14 14 13 11 11 10
5 3 4 3 5 5 5 5 1 2 1 5 2 5 5 2 16 15 12 6 6 8 7 5 9 11 11 12 11 11 11 14 14 13 13 14 13 13 17 17 17 16 15 14 13 13 13 11 10
6 4 4 4 3 4 4 2 2 3 2 3 2 2 5 8 12 10 9 9 2 5 8 5 4 5 7 8 10 9 10 11 13 12 13 12 11 12 17 17 17 17 15 14 13 14 14 12 10
5 5 4 4 4 6 3 5 3 1 2 7 1 4 4 4 10 10 6 6 7 4 2 6 5 5 4 3 7 8 9 8 11 10 9 10 10 13 16 15 16 16 15 13 12 12 13 12 10
2 4 3 5 6 3 3 5 5 3 3 2 4 2 4 8 7 9 8 6 5 4 6 3 6 4 7 6 5 6 8 8 7 8 8 7 4 8 9 9 12 15 15 13 13 12 10 9 9
4 4 8 2 2 2 3 1 3 4 3 2 5 8 6 9 8 8 7 7 5 4 3 4 3 2 6 4 5 4 5 4 4 3 5 4 6 6 9 8 10 13 14 13 13 12 9 7 3
1 4 2 2 3 3 4 6 2 2 6 7 6 5 8 9 14 8 7 6 4 5 2 2 2 3 2 4 3 2 2 3 3 5 4 4 4 5 6 5 6 5 8 4 6 5 3 5 4
1 2 2 4 4 5 5 5 7 9 6 9 14 10 5 8 9 12 9 8 7 6 6 4 3 3 3 0 2 3 3 3 4 5 5 4 2 5 6 5 5 5 4 5 4 3 4 4 4
1 3 5 5 9 6 7 10 9 9 20 13 14 12 11 10 11 10 11 7 8 7 6 7 5 4 4 4 3 2 1 1 0 4 9 7 4 5 6 5 4 4 4 5 4 4 4 4 4
1 4 7 7 7 5 7 7 2 10 4 9 8 11 9 10 12 10 9 10 8 7 8 7 9 8 5 4 4 3 2 2 1 1 3 8 9 7 6 6 6 4 5 4 4 4 4 4 4
3 6 7 2 2 4 4 7 10 15 3 10 12 12 12 10 10 13 12 11 9 7 6 8 11 9 8 7 5 4 3 3 3 3 4 7 7 9 12 7 6 6 5 5 4 3 2 1 3
4 3 5 2 1 3 4 8 8 6 5 10 12 15 12 10 13 13 13 12 10 8 8 8 8 10 10 9 5 4 4 4 4 5 4 7 9 9 9 8 8 6 7 7 6 4 3 3 3
5 2 2 8 1 3 3 11 7 7 9 17 19 16 14 13 8 10 12 12 12 9 9 7 9 10 10 7 4 4 4 4 4 4 5 8 7 7 9 7 7 8 7 7 6 3 3 3 3
3 4 5 6 6 2 7 24 20 20 12 16 18 16 14 10 14 11 12 12 11 9 8 7 7 9 9 5 4 3 4 5 3 5 6 9 7 9 7 5 4 5 3 4 5 3 2 3 4
3 8 13 13 11 9 12 21 21 20 11 13 16 15 13 12 13 7 10 11 8 8 8 9 8 9 8 7 8 5 7 7 7 6 8 10 9 9 9 7 5 4 5 3 3 2 4 4 2
6 9 10 11 4 3 12 21 22 19 13 9 11 12 11 8 7 9 8 12 12 11 9 10 11 9 9 7 4 3 3 5 5 5 9 11 13 12 9 8 7 7 5 5 6 5 2 3 4
5 6 6 10 13 8 10 11 5 3 4 5 6 7 7 9 11 9 7 10 9 9 9 10 13 12 12 10 4 4 3 2 3 5 6 8 10 10 11 11 9 6 5 5 7 7 8 4 3
4 7 11 12 8 5 5 9 5 6 10 6 9 7 9 9 10 9 8 8 9 10 9 11 12 13 13 7 8 10 5 5 3 4 5 6 9 9 7 8 8 7 6 9 11 9 6 5 4
8 2 7 9 13 11 7 5 6 5 7 14 20 11 10 10 9 10 8 8 8 7 8 11 11 10 9 12 9 8 6 4 2 2 5 5 6 7 10 10 10 10 8 9 10 8 8 6 4
5 7 8 5 4 4 1 5 4 8 15 17 14 10 10 7 6 7 7 6 8 6 9 9 11 12 8 8 9 10 10 8 5 4 4 3 3 4 9 9 9 9 8 10 11 6 6 7 5
2 4 5 6 1 6 2 4 3 12 19 9 5 6 7 8 12 7 5 5 6 7 9 9 11 10 10 8 8 12 11 8 7 7 7 8 5 3 3 5 5 4 4 5 4 4 4 5 5
2 1 1 4 3 6 1 4 3 13 17 11 6 8 12 15 17 10 10 5 3 2 8 9 9 8 4 6 4 4 14 7 5 7 3 5 6 5 4 4 4 5 5 5 5 4 3 2 4
2 3 1 3 3 3 4 2 2 17 19 15 16 14 14 16 13 15 14 9 10 10 12 10 10 7 5 6 5 8 7 8 6 6 5 3 5 4 4 4 4 4 3 3 3 3 3 3 5
5 1 2 2 4 4 2 2 6 14 15 15 15 14 15 12 16 12 13 16 11 12 11 14 11 10 8 9 10 8 8 7 5 5 5 4 3 3 4 4 5 5 4 5 3 3 4 7 7
2 2 4 2 1 2 4 2 4 8 9 10 13 12 10 9 11 15 16 15 15 14 13 11 11 9 12 13 14 11 12 11 11 10 9 9 8 8 7 7 3 0 2 3 4 5 5 8 8
5 4 3 2 2 1 1 3 3 6 5 7 9 8 8 9 11 11 11 13 14 13 14 12 10 15 15 13 12 11 11 10 11 10 9 7 9 8 8 8 8 7 7 6 6 6 5 5 6
Wind_Direction
347 350 67 45 66 60 246 253 266 224 158 116 252 272 241 274 196 216 313 178 144 143 155 153 158 163 160 160 152 149 149 149 149 153 154 152 151 150 153 146 146 146 129 128 122 125 117 110 112
350 344 45 86 90 96 259 248 219 234 309 300 289 307 110 282 285 302 345 188 155 145 147 155 162 163 162 156 156 157 156 155 156 161 158 159 160 162 158 150 147 134 129 127 127 123 124 115 115
142 46 80 102 136 194 209 218 224 303 323 351 6 30 259 295 338 294 317 158 144 144 148 156 160 163 162 151 160 162 166 164 166 171 165 163 167 169 154 160 144 128 129 121 133 127 123 121 112
38 16 36 104 210 260 199 163 103 8 10 19 337 330 344 92 337 325 298 144 136 129 136 161 163 165 169 165 162 167 172 173 175 182 173 170 172 166 149 145 129 125 133 131 137 135 132 125 113
38 56 71 74 259 273 252 246 107 54 293 317 345 303 301 19 336 358 341 134 138 110 88 166 165 171 170 171 174 171 174 177 177 181 181 180 184 165 149 136 124 130 140 147 147 146 141 128 122
54 93 86 221 245 277 274 237 56 122 255 309 31 330 272 357 7 348 353 301 148 150 139 170 172 178 176 177 177 182 180 179 179 179 185 184 184 171 151 142 139 148 156 159 158 154 146 136 128
112 97 188 175 217 287 258 320 196 152 140 274 287 279 281 359 341 335 6 1 294 186 161 163 167 175 183 177 183 184 192 189 180 184 184 188 187 170 158 151 153 159 163 164 163 160 153 146 137
98 90 134 225 195 254 13 346 342 74 234 311 258 241 281 308 328 341 352 20 6 327 193 144 151 142 143 172 187 180 189 195 175 184 184 176 170 167 164 158 163 163 166 164 164 166 161 153 148
111 76 180 212 165 246 35 26 322 302 256 348 297 268 304 310 328 11 357 353 360 350 325 299 162 157 148 156 157 162 185 179 181 186 176 159 160 166 164 163 168 165 166 167 167 167 164 157 152
90 126 208 215 213 254 304 153 337 336 307 285 299 280 306 328 354 348 344 341 325 315 324 343 323 237 146 136 154 166 162 150 154 168 179 156 158 161 161 163 170 170 169 171 174 170 163 145 127
97 182 208 270 263 16 299 307 244 259 268 212 229 273 305 323 313 312 305 299 289 289 258 232 292 311 311 161 148 167 194 164 135 142 159 182 158 161 163 161 175 177 172 173 173 167 150 161 159
9 265 258 289 349 338 308 305 292 222 252 253 249 260 269 269 275 288 284 275 282 256 241 201 221 258 244 56 187 167 169 161 157 147 149 148 173 180 165 174 173 175 183 185 169 162 171 178 175
77 323 320 297 293 269 243 247 250 270 263 264 271 258 248 235 246 257 262 254 267 259 231 218 191 233 237 187 206 223 256 353 359 168 169 162 176 195 172 165 171 183 171 180 182 170 174 191 203
270 261 269 263 264 257 265 266 175 250 240 267 260 261 240 223 231 247 261 265 238 238 233 211 205 205 212 231 208 196 183 231 262 213 203 208 180 176 190 177 184 187 194 165 172 181 184 216 204
323 325 321 296 291 252 203 267 229 251 270 267 278 268 265 231 223 231 236 246 236 233 222 209 212 201 203 225 227 209 208 208 208 215 214 216 205 202 175 178 187 189 198 166 158 162 171 244 273
24 32 357 316 157 284 123 268 272 281 290 273 274 272 262 256 216 224 233 244 248 232 219 212 211 206 214 212 219 218 197 213 209 197 196 213 218 204 208 179 184 182 194 182 172 163 198 201 238
18 323 333 316 316 277 227 290 264 289 273 279 276 263 263 263 244 222 232 233 249 230 232 214 198 205 210 221 197 212 224 218 225 196 192 206 212 212 216 204 187 166 191 187 174 171 167 199 219
354 350 318 281 300 309 283 276 280 274 267 263 266 260 260 258 255 217 226 234 237 244 238 231 190 200 190 189 197 212 217 238 211 228 205 193 200 200 201 206 174 143 172 193 181 164 179 194 200
283 284 284 278 263 278 263 270 276 277 270 264 260 260 256 258 258 225 227 236 238 244 232 222 198 198 184 194 205 215 225 239 225 216 219 204 187 187 177 171 149 160 167 213 202 168 201 226 155
263 268 271 279 266 215 269 279 283 288 266 256 274 263 260 267 269 263 234 233 235 225 219 214 215 196 196 198 196 189 190 226 230 217 224 202 195 190 179 178 192 167 143 196 222 201 205 225 167
228 239 269 274 294 247 284 282 311 324 314 304 322 292 282 259 271 265 256 237 230 226 212 201 209 210 209 197 166 182 163 178 178 201 213 208 203 199 194 169 162 175 173 206 223 217 202 192 208
287 234 253 281 317 287 61 290 288 331 317 310 303 296 284 275 263 253 258 255 226 226 220 202 196 202 206 171 196 212 201 195 197 182 196 190 201 189 193 185 183 177 186 212 212 201 198 159 202
245 325 265 268 267 285 253 254 268 348 322 315 308 297 276 261 256 255 252 247 244 230 211 198 183 186 189 196 195 203 205 182 166 160 161 186 185 183 194 191 197 193 213 212 226 189 192 186 170
280 304 290 241 244 253 269 203 291 351 315 310 300 295 302 315 291 258 263 265 265 231 187 185 181 193 177 175 195 200 207 189 164 170 164 150 125 186 200 195 197 204 210 216 224 198 183 201 208
168 278 315 356 299 239 208 257 293 327 321 304 335 0 14 14 1 329 307 297 259 218 190 186 187 180 183 190 213 213 209 199 180 178 184 156 139 138 149 147 147 153 171 184 173 180 185 199 211
297 217 265 281 290 293 21 308 317 337 334 20 27 16 33 16 358 18 18 36 48 19 173 141 150 107 151 157 204 221 209 185 191 157 144 154 130 136 138 129 144 148 149 153 170 170 173 195 229
98 219 178 273 233 262 307 326 227 355 351 12 21 33 29 10 349 10 20 35 55 57 55 83 106 100 104 116 129 60 71 102 113 113 124 137 102 160 168 185 180 179 204 181 163 182 211 186 220
227 332 229 213 303 297 334 32 322 346 345 356 36 18 21 355 359 17 28 48 49 48 61 66 60 64 82 84 64 52 45 59 77 96 95 114 124 172 198 198 197 196 213 234 190 203 203 218 228
182 235 211 287 252 303 324 358 348 329 348 2 31 20 14 21 21 12 24 34 36 48 48 63 61 77 68 67 56 53 46 43 54 56 47 44 50 40 37 25 32 198 232 221 212 220 235 245 256
164 208 228 184 192 300 197 4 334 302 346 8 350 2 8 16 22 26 31 33 35 40 40 44 58 58 50 62 57 52 53 48 51 49 47 46 50 42 36 34 40 31 26 22 16 3 352 332 320